| time (UTC) | temp C | wind direction | speed KPH | gust KPH | rain 1hr cm | rain 24hr cm | rain mn cm | humidity % | barometer mb |
| 20260901040119 | 12 | 196 | 27.4 | 37.0 | 0.00 | 0.23 | 0.00 | 66 | 1016.7 |
| 20260901035113 | 12 | 197 | 25.7 | 35.4 | 0.00 | 0.23 | 0.00 | 63 | 1016.6 |
| 20260901034049 | 13 | 225 | 22.5 | 32.2 | 0.00 | 0.23 | 0.00 | 62 | 1016.7 |
| 20260901033046 | 13 | 215 | 25.7 | 32.2 | 0.00 | 0.23 | 0.00 | 63 | 1016.6 |
| 20260901032042 | 12 | 207 | 25.7 | 35.4 | 0.00 | 0.23 | 0.00 | 62 | 1016.5 |
| 20260901031101 | 13 | 213 | 27.4 | 37.0 | 0.00 | 0.28 | 0.00 | 59 | 1016.4 |
| 20260901030035 | 14 | 218 | 27.4 | 37.0 | 0.00 | 0.28 | 0.00 | 58 | 1016.2 |
| 20260901025032 | 14 | 217 | 29.0 | 43.5 | 0.00 | 0.28 | 0.00 | 60 | 1016.1 |
| 20260901024028 | 13 | 222 | 29.0 | 40.2 | 0.00 | 0.28 | 0.00 | 57 | 1016.0 |
| 20260901023046 | 14 | 231 | 32.2 | 43.5 | 0.00 | 0.28 | 0.00 | 56 | 1016.0 |
| 20260901022021 | 15 | 225 | 32.2 | 45.1 | 0.00 | 0.28 | 0.00 | 57 | 1015.9 |
| 20260901021038 | 13 | 229 | 32.2 | 43.5 | 0.00 | 0.28 | 0.00 | 55 | 1015.7 |
| 20260901020116 | 14 | 222 | 33.8 | 48.3 | 0.00 | 0.28 | 0.00 | 55 | 1015.8 |
| 20260901015111 | 13 | 230 | 33.8 | 46.7 | 0.00 | 0.28 | 0.00 | 57 | 1015.8 |
| 20260901014107 | 13 | 220 | 32.2 | 46.7 | 0.00 | 0.28 | 0.00 | 60 | 1016.1 |
| 20260901013126 | 14 | 208 | 30.6 | 43.5 | 0.00 | 0.28 | 0.00 | 61 | 1016.2 |
| 20260901012101 | 14 | 220 | 33.8 | 43.5 | 0.00 | 0.28 | 0.00 | 61 | 1016.4 |
| 20260901011117 | 14 | 216 | 33.8 | 46.7 | 0.00 | 0.28 | 0.00 | 61 | 1016.5 |
| 20260901010054 | 15 | 213 | 32.2 | 43.5 | 0.00 | 0.28 | 0.00 | 61 | 1016.5 |
| 20260901005049 | 15 | 233 | 25.7 | 41.8 | 0.00 | 0.28 | 0.00 | 63 | 1016.6 |
| 20260901004047 | 13 | 237 | 27.4 | 37.0 | 0.00 | 0.28 | 0.00 | 61 | 1016.7 |
| 20260901003043 | 14 | 214 | 33.8 | 48.3 | 0.00 | 0.28 | 0.00 | 62 | 1016.9 |
| 20260901002039 | 13 | 213 | 32.2 | 46.7 | 0.00 | 0.28 | 0.00 | 62 | 1016.8 |
| 20260901001036 | 13 | 186 | 30.6 | 48.3 | 0.00 | 0.28 | 0.00 | 62 | 1016.8 |
| 20260901000032 | 13 | 222 | 37.0 | 48.3 | 0.00 | 0.28 | 0.00 | 60 | 1016.8 |
| 20260831235049 | 14 | 211 | 35.4 | 48.3 | 0.00 | 0.28 | 0.00 | 60 | 1016.6 |
| 20260831234027 | 14 | 217 | 33.8 | 45.1 | 0.00 | 0.28 | 0.00 | 58 | 1016.7 |
| 20260831233022 | 14 | 221 | 37.0 | 49.9 | 0.00 | 0.28 | 0.00 | 59 | 1016.7 |
| 20260831232019 | 14 | 217 | 35.4 | 57.9 | 0.00 | 0.30 | 0.00 | 61 | 1016.6 |
| 20260831231115 | 13 | 219 | 37.0 | 51.5 | 0.00 | 0.30 | 0.00 | 61 | 1016.6 |
| 20260831230113 | 13 | 233 | 33.8 | 43.5 | 0.00 | 0.30 | 0.00 | 64 | 1016.6 |
| 20260831225110 | 12 | 203 | 37.0 | 48.3 | 0.00 | 0.30 | 0.00 | 67 | 1016.7 |
| 20260831224105 | 13 | 208 | 33.8 | 53.1 | 0.00 | 0.30 | 0.00 | 61 | 1016.7 |
| 20260831223101 | 13 | 217 | 35.4 | 46.7 | 0.00 | 0.30 | 0.00 | 62 | 1016.6 |
| 20260831222058 | 13 | 219 | 35.4 | 49.9 | 0.00 | 0.30 | 0.00 | 61 | 1016.5 |
| 20260831221054 | 13 | 212 | 30.6 | 43.5 | 0.00 | 0.36 | 0.00 | 61 | 1016.4 |
| 20260831220053 | 13 | 230 | 32.2 | 43.5 | 0.00 | 0.36 | 0.00 | 64 | 1016.3 |
| 20260831215047 | 12 | 216 | 32.2 | 45.1 | 0.00 | 0.36 | 0.00 | 70 | 1016.2 |
| 20260831214044 | 12 | 193 | 29.0 | 38.6 | 0.00 | 0.36 | 0.00 | 76 | 1015.9 |
| 20260831213040 | 10 | 218 | 27.4 | 37.0 | 0.00 | 0.36 | 0.00 | 74 | 1015.8 |
| 20260831212039 | 10 | 216 | 27.4 | 38.6 | 0.00 | 0.36 | 0.00 | 74 | 1015.8 |
| 20260831211033 | 10 | 213 | 32.2 | 45.1 | 0.00 | 0.36 | 0.00 | 75 | 1015.7 |
| 20260831210035 | 11 | 216 | 29.0 | 40.2 | 0.00 | 0.36 | 0.00 | 79 | 1015.7 |
| 20260831205026 | 10 | 222 | 27.4 | 38.6 | 0.00 | 0.36 | 0.00 | 81 | 1015.5 |
| 20260831204023 | 9 | 230 | 27.4 | 38.6 | 0.00 | 0.36 | 0.00 | 80 | 1015.5 |
| 20260831203021 | 9 | 198 | 33.8 | 54.7 | 0.00 | 0.36 | 0.00 | 80 | 1015.5 |
| 20260831202036 | 9 | 224 | 27.4 | 54.7 | 0.00 | 0.36 | 0.00 | 80 | 1015.3 |
| 20260831201112 | 8 | 197 | 25.7 | 38.6 | 0.00 | 0.36 | 0.00 | 80 | 1015.1 |
| 20260831200110 | 8 | 222 | 22.5 | 29.0 | 0.00 | 0.36 | 0.00 | 80 | 1014.8 |
| 20260831195105 | 8 | 226 | 20.9 | 33.8 | 0.00 | 0.46 | 0.00 | 79 | 1014.4 |
| 20260831194102 | 8 | 230 | 27.4 | 41.8 | 0.00 | 0.46 | 0.00 | 78 | 1014.2 |
| 20260831193100 | 8 | 210 | 25.7 | 45.1 | 0.00 | 0.46 | 0.00 | 78 | 1014.1 |
| 20260831192055 | 8 | 221 | 19.3 | 30.6 | 0.00 | 0.48 | 0.00 | 78 | 1014.0 |
| 20260831191054 | 8 | 199 | 22.5 | 33.8 | 0.00 | 0.48 | 0.00 | 79 | 1013.8 |
| 20260831190048 | 8 | 231 | 24.1 | 33.8 | 0.00 | 0.48 | 0.00 | 80 | 1013.8 |
| 20260831185045 | 8 | 221 | 25.7 | 40.2 | 0.00 | 0.48 | 0.00 | 81 | 1013.4 |
| 20260831184042 | 8 | 211 | 20.9 | 35.4 | 0.00 | 0.48 | 0.00 | 80 | 1013.2 |
| 20260831183037 | 8 | 223 | 17.7 | 25.7 | 0.00 | 0.48 | 0.00 | 80 | 1013.3 |
| 20260831182033 | 8 | 232 | 22.5 | 32.2 | 0.00 | 0.48 | 0.00 | 80 | 1013.3 |
| 20260831181032 | 8 | 209 | 29.0 | 48.3 | 0.00 | 0.51 | 0.00 | 80 | 1013.2 |
| 20260831180027 | 8 | 216 | 25.7 | 33.8 | 0.00 | 0.51 | 0.00 | 79 | 1013.2 |
| 20260831175043 | 8 | 202 | 35.4 | 43.5 | 0.00 | 0.51 | 0.00 | 78 | 1013.1 |
| 20260831174020 | 8 | 212 | 27.4 | 43.5 | 0.00 | 0.51 | 0.00 | 78 | 1012.9 |
| 20260831173019 | 8 | 216 | 25.7 | 35.4 | 0.00 | 0.51 | 0.00 | 77 | 1012.9 |
| 20260831172136 | 8 | 197 | 24.1 | 33.8 | 0.00 | 0.51 | 0.00 | 77 | 1012.8 |
| 20260831171130 | 8 | 195 | 30.6 | 43.5 | 0.00 | 0.51 | 0.00 | 79 | 1012.7 |
| 20260831170106 | 8 | 233 | 30.6 | 38.6 | 0.00 | 0.51 | 0.00 | 79 | 1012.7 |
| 20260831165102 | 8 | 228 | 25.7 | 45.1 | 0.00 | 0.51 | 0.00 | 79 | 1012.6 |
| 20260831164119 | 8 | 230 | 20.9 | 32.2 | 0.00 | 0.51 | 0.00 | 77 | 1012.4 |
| 20260831163057 | 8 | 180 | 25.7 | 33.8 | 0.00 | 0.51 | 0.00 | 76 | 1012.3 |
| 20260831162052 | 8 | 192 | 30.6 | 40.2 | 0.00 | 0.51 | 0.00 | 75 | 1012.2 |
| 20260831161048 | 8 | 200 | 29.0 | 43.5 | 0.00 | 0.51 | 0.00 | 75 | 1012.0 |
| 20260831160047 | 8 | 199 | 30.6 | 43.5 | 0.00 | 0.51 | 0.00 | 76 | 1011.8 |
| 20260831155041 | 8 | 194 | 25.7 | 37.0 | 0.00 | 0.51 | 0.00 | 76 | 1011.7 |
| 20260831154040 | 8 | 213 | 29.0 | 38.6 | 0.00 | 0.51 | 0.00 | 76 | 1011.5 |
| 20260831153034 | 8 | 225 | 30.6 | 45.1 | 0.00 | 0.51 | 0.00 | 76 | 1011.4 |
| 20260831152033 | 8 | 216 | 25.7 | 41.8 | 0.00 | 0.51 | 0.00 | 75 | 1011.4 |
| 20260831151027 | 8 | 221 | 24.1 | 33.8 | 0.00 | 0.51 | 0.00 | 75 | 1011.6 |
| 20260831150024 | 9 | 221 | 29.0 | 45.1 | 0.00 | 0.51 | 0.00 | 75 | 1011.6 |
| 20260831145027 | 9 | 213 | 24.1 | 38.6 | 0.00 | 0.53 | 0.00 | 74 | 1011.5 |
| 20260831144058 | 8 | 221 | 22.5 | 32.2 | 0.00 | 0.53 | 0.00 | 73 | 1011.5 |
| 20260831143113 | 9 | 227 | 25.7 | 37.0 | 0.00 | 0.53 | 0.00 | 76 | 1011.7 |
| 20260831142110 | 9 | 221 | 32.2 | 46.7 | 0.00 | 0.53 | 0.00 | 75 | 1011.6 |
| 20260831141107 | 9 | 214 | 27.4 | 38.6 | 0.00 | 0.53 | 0.00 | 75 | 1011.5 |
| 20260831135120 | 9 | 209 | 20.9 | 35.4 | 0.00 | 0.53 | 0.00 | 73 | 1011.3 |
| 20260831134057 | 10 | 242 | 27.4 | 41.8 | 0.00 | 0.53 | 0.00 | 72 | 1011.3 |
| 20260831133053 | 10 | 233 | 30.6 | 54.7 | 0.00 | 0.53 | 0.00 | 73 | 1011.3 |
| 20260831132049 | 9 | 231 | 25.7 | 43.5 | 0.00 | 0.53 | 0.00 | 73 | 1011.2 |
| 20260831131045 | 9 | 225 | 25.7 | 30.6 | 0.00 | 0.53 | 0.00 | 75 | 1011.1 |
| 20260831130041 | 9 | 225 | 33.8 | 40.2 | 0.00 | 0.53 | 0.00 | 82 | 1010.9 |
| 20260831125058 | 9 | 225 | 25.7 | 40.2 | 0.00 | 0.53 | 0.00 | 84 | 1010.8 |
| 20260831124036 | 9 | 231 | 29.0 | 46.7 | 0.03 | 0.53 | 0.00 | 87 | 1010.7 |
| 20260831123033 | 9 | 225 | 27.4 | 37.0 | 0.10 | 0.53 | 0.00 | 88 | 1010.7 |
| 20260831122030 | 9 | 210 | 27.4 | 41.8 | 0.10 | 0.53 | 0.00 | 89 | 1010.8 |
| 20260831121024 | 9 | 231 | 22.5 | 33.8 | 0.10 | 0.53 | 0.00 | 89 | 1010.6 |
| 20260831120021 | 10 | 228 | 17.7 | 25.7 | 0.10 | 0.53 | 0.00 | 88 | 1010.5 |
| 20260831115019 | 10 | 230 | 19.3 | 27.4 | 0.10 | 0.53 | 0.53 | 88 | 1010.4 |
| 20260831114115 | 10 | 242 | 20.9 | 33.8 | 0.05 | 0.51 | 0.51 | 88 | 1010.4 |
| 20260831113112 | 10 | 242 | 17.7 | 29.0 | 0.00 | 0.46 | 0.46 | 88 | 1010.3 |
| 20260831112127 | 10 | 217 | 19.3 | 27.4 | 0.00 | 0.46 | 0.46 | 87 | 1010.3 |
| 20260831111104 | 10 | 208 | 16.1 | 24.1 | 0.00 | 0.46 | 0.46 | 87 | 1010.4 |
| 20260831105057 | 10 | 225 | 19.3 | 27.4 | 0.00 | 0.46 | 0.46 | 87 | 1010.3 |
| 20260831104054 | 10 | 229 | 19.3 | 27.4 | 0.00 | 0.46 | 0.46 | 87 | 1010.3 |
| 20260831103135 | 10 | 221 | 12.9 | 22.5 | 0.03 | 0.46 | 0.46 | 87 | 1010.2 |
| 20260831102049 | 10 | 228 | 20.9 | 35.4 | 0.05 | 0.46 | 0.46 | 86 | 1010.4 |
| 20260831101044 | 10 | 194 | 19.3 | 30.6 | 0.13 | 0.46 | 0.46 | 85 | 1010.4 |
| 20260831100042 | 10 | 241 | 17.7 | 27.4 | 0.13 | 0.46 | 0.46 | 84 | 1010.2 |
| 20260831095037 | 10 | 223 | 14.5 | 20.9 | 0.13 | 0.46 | 0.46 | 83 | 1010.1 |
| 20260831094033 | 10 | 219 | 20.9 | 30.6 | 0.13 | 0.46 | 0.46 | 82 | 1009.9 |
| 20260831093029 | 10 | 203 | 32.2 | 43.5 | 0.10 | 0.43 | 0.43 | 80 | 1009.5 |
| 20260831092026 | 10 | 224 | 22.5 | 35.4 | 0.05 | 0.38 | 0.38 | 80 | 1009.4 |
| 20260831091022 | 10 | 244 | 19.3 | 30.6 | 0.00 | 0.33 | 0.33 | 80 | 1009.4 |
| 20260831090040 | 10 | 226 | 22.5 | 30.6 | 0.00 | 0.33 | 0.33 | 80 | 1009.4 |
| 20260831085137 | 10 | 238 | 22.5 | 32.2 | 0.00 | 0.33 | 0.33 | 80 | 1009.3 |
| 20260831084112 | 10 | 220 | 22.5 | 35.4 | 0.00 | 0.33 | 0.33 | 80 | 1009.2 |
| 20260831083109 | 10 | 215 | 20.9 | 30.6 | 0.00 | 0.33 | 0.33 | 80 | 1009.1 |
| 20260831082107 | 10 | 220 | 22.5 | 33.8 | 0.00 | 0.33 | 0.33 | 81 | 1008.9 |
| 20260831081101 | 10 | 230 | 19.3 | 30.6 | 0.00 | 0.33 | 0.33 | 82 | 1008.9 |
| 20260831080059 | 10 | 225 | 20.9 | 35.4 | 0.00 | 0.33 | 0.33 | 83 | 1008.8 |
| 20260831075117 | 10 | 225 | 19.3 | 29.0 | 0.00 | 0.33 | 0.33 | 84 | 1008.7 |
| 20260831074052 | 10 | 240 | 16.1 | 24.1 | 0.00 | 0.33 | 0.33 | 84 | 1008.8 |
| 20260831073048 | 10 | 232 | 17.7 | 33.8 | 0.00 | 0.33 | 0.33 | 83 | 1008.6 |
| 20260831072044 | 10 | 220 | 16.1 | 24.1 | 0.00 | 0.33 | 0.33 | 82 | 1008.6 |
| 20260831071043 | 10 | 216 | 22.5 | 33.8 | 0.00 | 0.33 | 0.33 | 81 | 1008.5 |
| 20260831070039 | 10 | 218 | 17.7 | 25.7 | 0.00 | 0.33 | 0.33 | 81 | 1008.2 |
| 20260831065034 | 10 | 230 | 19.3 | 29.0 | 0.00 | 0.33 | 0.33 | 81 | 1008.3 |
| 20260831064052 | 10 | 234 | 25.7 | 38.6 | 0.00 | 0.36 | 0.33 | 81 | 1008.3 |
| 20260831063027 | 10 | 224 | 22.5 | 35.4 | 0.00 | 0.36 | 0.33 | 81 | 1008.4 |
| 20260831062023 | 10 | 226 | 25.7 | 41.8 | 0.00 | 0.36 | 0.33 | 81 | 1008.3 |
| 20260831061042 | 11 | 238 | 25.7 | 38.6 | 0.00 | 0.36 | 0.33 | 81 | 1008.1 |
| 20260831060016 | 11 | 215 | 29.0 | 45.1 | 0.00 | 0.36 | 0.33 | 80 | 1008.0 |
| 20260831055114 | 11 | 197 | 30.6 | 48.3 | 0.00 | 0.36 | 0.33 | 80 | 1007.8 |
| 20260831054109 | 11 | 228 | 22.5 | 38.6 | 0.00 | 0.36 | 0.33 | 80 | 1007.6 |
| 20260831053108 | 11 | 218 | 32.2 | 46.7 | 0.00 | 0.36 | 0.33 | 81 | 1007.7 |
| 20260831052102 | 11 | 210 | 35.4 | 51.5 | 0.00 | 0.36 | 0.33 | 83 | 1007.7 |
| 20260831051059 | 11 | 234 | 25.7 | 43.5 | 0.03 | 0.36 | 0.33 | 84 | 1007.7 |
| 20260831050058 | 11 | 207 | 29.0 | 38.6 | 0.03 | 0.36 | 0.33 | 84 | 1007.6 |
| 20260831045052 | 12 | 190 | 30.6 | 38.6 | 0.03 | 0.36 | 0.33 | 83 | 1007.6 |
| 20260831044048 | 12 | 208 | 27.4 | 37.0 | 0.03 | 0.36 | 0.33 | 81 | 1007.7 |
| 20260831043045 | 12 | 252 | 25.7 | 37.0 | 0.03 | 0.48 | 0.33 | 80 | 1007.4 |
| 20260831042103 | 12 | 215 | 24.1 | 45.1 | 0.03 | 0.48 | 0.33 | 77 | 1007.3 |
| 20260831041058 | 13 | 240 | 20.9 | 33.8 | 0.03 | 0.48 | 0.30 | 76 | 1007.2 |